www.pogodaiklimat.ru

Погода и климат >> Архив погоды >> Македония >> Крива-Паланка


ПОГОДА в Крива-Паланке

  • Прогноз погоды в Крива-Паланке
  • Монитор погоды в Крива-Паланке

АРХИВ ПОГОДЫ в Крива-Паланке

Время (UTC), дата Ветер
(напр.,м/с)
 
Видим.   Явления Облачность Т
(С)
Тd
(С)
f
(%)
Тe
(С)
Тes
(С)
Комфортность P
(гПа)
Po
(гПа)
Тmin
(С)
Tmax
(С)
R
(мм)
R24
(мм)
S
(см)
21 16.05 СВ 5 20 км 9/0
[Cs]
+8.6 +8.1 97 +5 +5 1012.5 932.3
00 17.05 СВ 5 20 км 8/0
[Cs]
+6.9 +6.4 97 +3 +3 1012.6 931.5
03 17.05 СВ 3 2000 м 8/8 450 м
[St]
+7.0 +6.0 93 +4 +4 1012.3 931.3
06 17.05 СВ 5 2000 м 9/9 300 м
[St]
+11.5 +8.3 81 +9 +9 1011.3 932.0 +6.2
09 17.05 Ю 2 2000 м 9/9 300 м
[Cu Sc]
+14.7 +8.5 66 +14 +16 1010.8 932.3
12 17.05 ЮЗ 3 20 км 8/8 1000 м
[Cu med, cong]
+16.8 +10.3 65 +17 +19 1010.1 932.2
15 17.05 ЮЗ 4 20 км 6/5 1000 м
[Cu med, cong Ci fib]
+18.8 +11.2 61 +19 +21 1008.6 931.3
18 17.05 штиль 0 20 км 5/5 1000 м
[Sc diur, vesp]
+15.5 +9.5 67 +15 +15 1009.3 931.2 +18.8
21 17.05 СВ 5 20 км ясно +10.7 +9.2 90 +8 +8 1011.9 932.3
00 18.05 СВ 5 20 км ясно +8.0 +7.0 93 +4 +4 1012.8 932.3
03 18.05 СВ 5 2000 м ясно +6.3 +6.0 98 +2 +2 1013.2 931.8
06 18.05 СВ 2 20 км 5/0
[Cs]
+13.5 +9.2 75 +13 +18 1010.4 931.7 +5.6
09 18.05 ЮЗ 5 20 км 5/3 1230 м
[Cu Sc Ci sp]
+19.1 +10.6 58 +20 +26 1009.3 931.9
12 18.05 ЮЗ 3 20 км 8/3 1000 м
[Cu Sc Cs]
+22.1 +10.2 47 +24 +32 комфорт 1007.5 931.0
15 18.05 З 3 20 км 6/0
[Cs]
+23.2 +7.7 37 +24 +28 комфорт 1006.2 929.8
18 18.05 С 4 20 км 5/0
[Cs]
+17.3 +8.8 57 +17 +17 1007.7 930.0 +23.7
21 18.05 СВ 6 20 км 5/0
[Ac trans]
+13.2 +9.2 77 +11 +11 1009.9 931.0
00 19.05 СВ 5 20 км 6/0
[Cs]
+11.5 +9.0 85 +9 +9 1010.2 931.0
03 19.05 В 5 20 км 9/3 1000 м
[Sc Cs]
+10.6 +8.1 85 +8 +8 1010.2 930.7
06 19.05 СВ 3 20 км 8/0
[Cs]
+16.3 +11.1 71 +16 +20 1010.0 931.8 +10.5
09 19.05 Ю 3 20 км 8/0
[Ac trans Cs]
+21.3 +11.9 55 +23 +33 комфорт 1006.3 929.7
12 19.05 З 5 20 км 9/0
[Ac As]
+24.0 +6.9 33 +24 +28 комфорт 1004.1 928.4
15 19.05 З 2 20 км 6/0
[Ac trans Cs]
+23.4 +7.4 36 +24 +28 комфорт 1003.8 927.8
18 19.05 ЮВ 4 20 км 8/0
[Ac trans Cs]
+20.4 +5.0 36 +21 +21 комфорт 1004.2 927.3 +24.7
21 19.05 Ю 3 20 км 4/0
[Ac trans]
+18.9 +5.6 42 +19 +19 1005.6 928.3
00 20.05 СВ 3 20 км 4/0
[Ac trans]
+11.4 +7.2 75 +10 +10 1008.1 928.8
03 20.05 СВ 5 20 км 8/0
[Ac As]
+10.3 +8.3 87 +7 +7 1008.4 928.8
06 20.05 СВ 3 20 км 9/9 1000 м
[Sc]
+12.7 +9.2 79 +11 +12 1008.8 930.0 +10.1
09 20.05 ЮЗ 4 20 км 10/4 1000 м
[Cu Sc As op]
+16.6 +11.5 72 +16 +17 1009.1 931.3
12 20.05 З 4 20 км 6/6 1000 м
[Cu Sc]
+18.5 +9.7 57 +19 +23 1008.9 931.5
15 20.05 штиль 0 20 км {дождь} 9/9 1000 м
[Cu Sc]
+14.8 +11.1 78 +15 +15 1010.8 932.3
18 20.05 С 2 20 км 5/4 1000 м
[Cu Sc Ac trans]
+13.2 +10.8 85 +12 +12 1010.9 931.9 +19.3 1
21 20.05 СВ 4 20 км 4/4 1230 м
[Sc]
+9.2 +8.1 93 +6 +6 1013.6 933.3
00 21.05 СВ 4 20 км 6/6 1000 м
[Sc]
+7.8 +7.0 95 +4 +4 1014.5 933.9
03 21.05 СВ 4 20 км ясно +6.9 +6.4 97 +3 +3 1014.9 933.7
06 21.05 СВ 1 20 км 3/3 1000 м
[Sc]
+13.5 +7.2 66 +14 +18 1013.0 934.1 +5.8
09 21.05 ЮЗ 6 20 км 8/8 1230 м
[Cu Sc]
+18.0 +8.5 54 +17 +19 1012.0 934.2
12 21.05 З 2 20 км слаб. дождь туман 9/9 1000 м
[Cu Sc]
+13.7 +11.4 86 +13 +15 1014.0 935.0 2
15 21.05 ЮЗ 5 20 км {дождь} туман 9/5 1000 м
[Cu Sc Cs]
+18.5 +9.2 55 +19 +20 1011.6 933.8
18 21.05 С 3 20 км 1/1 1000 м
[Sc diur, vesp]
+15.0 +8.8 66 +14 +14 1013.3 934.6 +18.7 2
21 21.05 СВ 5 20 км ясно +9.6 +7.4 86 +6 +6 1016.1 935.9
00 22.05 СВ 6 20 км 1/0
[Ci fib]
+6.9 +5.8 93 +2 +2 1016.7 935.4
03 22.05 В 6 20 км 6/0
[Ac trans]
+7.5 +6.0 90 +3 +3 1016.8 935.7
06 22.05 штиль 0 20 км 4/0
[Ac lent Ci sp]
+14.4 +8.3 67 +14 +20 1015.0 935.9 +6.0
09 22.05 ЮЗ 3 20 км 6/4 1000 м
[Cu Sc Ci sp]
+19.2 +9.7 54 +20 +28 1013.4 935.7
12 22.05 ЮЗ 4 20 км 8/3 1000 м
[Cu Sc Cs]
+21.6 +10.2 48 +23 +30 комфорт 1011.7 934.9
15 22.05 З 4 20 км 6/4 1000 м
[Cu Sc Ci sp]
+22.5 +7.9 39 +24 +26 комфорт 1009.9 933.5
18 22.05 штиль 0 20 км 4/4 1000 м
[Sc diur, vesp]
+16.8 +10.0 64 +17 +17 1011.4 933.4 +22.7
21 22.05 СВ 5 20 км ясно +11.4 +8.6 83 +9 +9 1014.7 934.9
00 23.05 СВ 5 20 км 4/4 1000 м
[St Ac inh Cs]
+10.2 +7.7 84 +7 +7 1015.0 934.9
03 23.05 СВ 5 20 км 8/1 1000 м
[Sc Ac lent Ci fib]
+8.4 +7.2 92 +5 +5 1014.5 933.9
06 23.05 СВ 3 20 км 8/0
[Cs]
+15.0 +9.8 71 +14 +18 1013.7 935.0 +7.7
09 23.05 С 4 20 км 8/6 1000 м
[Cb calv Ci sp]
+20.0 +8.8 48 +21 +25 комфорт 1012.2 934.9
12 23.05 Ю 2 20 км {гроза} 9/8 1000 м
[Cb calv Ci sp]
+20.0 +9.0 49 +22 +25 комфорт 1011.1 933.9
15 23.05 С 2 20 км 5/4 1000 м
[Cu med, cong Ci sp]
+20.7 +9.0 47 +23 +26 комфорт 1009.7 932.8
18 23.05 СВ 3 20 км 5/3 1000 м
[Sc diur, vesp Ci sp]
+16.0 +9.0 63 +16 +16 1011.2 932.9 +9.4

 

Местоположение метеостанции Крива-Паланка (Македония): широта 42.20 долгота 22.33 высота над уровнем моря 696 м.

В архиве по умолчанию представлена погода в Крива-Паланке за последнюю неделю. Архивные данные за месяц целиком и за предыдущие месяцы, начиная с января 2011 года, Вы можете получить, выбрав интересующий диапазон дат из раскрывающегося списка и нажав кнопку "Ввод!".


*Определитесь, кто Вы:
робот инопланетянин человек

Внимание! Время в таблицах - всемирное. Для получения местного времени необходимо прибавить поправку, которая равна 1 ч.

Смотрите также архив погоды в соседних городах и на ближайших метеорологических станциях:

Погода в Винице (Македония) (38 км)
Погода во Вране (Черногория) (51 км)
Погода в Штипе (Македония) (52 км)
Погода в Гуришках (Македония) (52 км)
Погода в Скопье (Македония) (64 км)
Погода в Берово (Македония) (69 км)
Погода в Скопье городе (Македония) (80 км)
Погода в Демир-Капия (Македония) (87 км)
Погода в Струмице (Македония) (90 км)
Погода в Лесковаце (Сербия) (92 км)

Пояснения к столбцам:

Ветер - указаны скорость ветра в м/с - средняя за 10 мин, порывы в срок и между сроками (в фигурных скобках) и направление, откуда дует ветер: С - северный, СВ - северо-восточный, В - восточный, ЮВ - юго-восточный, Ю - южный, ЮЗ - юго-западный, З - западный, СЗ - северо-западный.
Видимость - горизонтальная дальность видимости в метрах или километрах. При видимости от 1 до 10 км при отсутствии осадков обычно наблюдается дымка, при ухудшении видимости до 1 км и менее - туман. В сухую погоду видимость может ухудшаться дымом, пылью или мглою.
Явления - указаны атмосферные явления, наблюдавшиеся в срок или в последний час перед сроком; фигурными скобками обозначены явления, наблюдавшиеся между сроками (за 1-3 часа до срока); квадратными скобками обозначены град или гололедные отложения с указанием их диаметра в мм.
Облачность - указаны через наклонную черту общая и нижняя облачность в баллах и высота нижней границы облаков в метрах; квадратными скобками обозначены формы облаков: Ci - перистые, Cs - перисто-слоистые, Cc - перисто-кучевые, Ac - высококучевые, As - высокослоистые, Sc - слоисто-кучевые, Ns - слоисто-дождевые, Cu - кучевые, Cb - кучево-дождевые. Подробнее классификацию облаков см. в Атласе облаков (PDF).
T - Температура воздуха - температура, измеренная на высоте 2 м над землей.
Td - Температура точки росы - температура, при понижении до которой содержащийся в воздухе водяной пар достигнет насыщения.
f - Относительная влажность воздуха - влажноcть воздуха, измеренная на высоте 2 м над землей.
Te - Эффективная температура - температура, которую ощущает одетый по сезону человек в тени. Характеристика душности погоды. При расчете учитывается влияние влажности воздуха и скорости ветра на теплоощущения человека.
Tes - Эффективная температура на солнце - температура, которую ощущает человек, с поправкой на солнечный нагрев. Характеристика знойности погоды. Зависит от высоты солнца над горизонтом, облачности и скорости ветра. Ночью, в пасмурную погоду, а также при ветре 12 м/с и более поправка равна нулю.
P - Атмосферное давление - приведенное к уровню моря атмосферное давление.
Po - Атмосферное давление - измеренное на уровне метеостанции атмосферное давление.
Tmin - Минимальная температура - минимум температуры воздуха на высоте 2 м над землей.
Tmax - Максимальная температура - максимум температуры воздуха на высоте 2 м над землей.
R - Количество осадков - Количество выпавших осадков за период времени, мм. При наведении курсора мыши на число - период времени, за который выпало указанное количество осадков.
R24 - Количество осадков - Количество выпавших осадков за 24 часа, мм.
S - Снежный покров - Высота снежного покрова, см. При наведении курсора мыши на число - состояние снежного покрова и степень покрытия местности в баллах.